TimeMDT,TemperatureF,Dew PointF,Humidity,Sea Level PressureIn,VisibilityMPH,Wind Direction,Wind SpeedMPH,Gust SpeedMPH,PrecipitationIn,Events,Conditions,WindDirDegrees,DateUTC
12:53 AM,54.0,25.0,33,29.92,10.0,Calm,Calm,-,N/A,,Clear,0,2013-09-30 06:53:00
1:53 AM,50.0,25.0,38,29.93,10.0,Calm,Calm,-,N/A,,Clear,0,2013-09-30 07:53:00
2:53 AM,54.0,26.1,34,29.91,10.0,Calm,Calm,-,N/A,,Clear,0,2013-09-30 08:53:00
3:53 AM,46.9,25.0,42,29.91,10.0,Calm,Calm,-,N/A,,Clear,0,2013-09-30 09:53:00
4:53 AM,50.0,27.0,41,29.90,10.0,ENE,3.5,-,N/A,,Clear,70,2013-09-30 10:53:00
5:53 AM,51.1,28.0,41,29.90,10.0,Calm,Calm,-,N/A,,Clear,0,2013-09-30 11:53:00
6:53 AM,50.0,28.9,44,29.92,10.0,Calm,Calm,-,N/A,,Clear,0,2013-09-30 12:53:00
7:53 AM,51.1,28.9,43,29.94,10.0,Calm,Calm,-,N/A,,Clear,0,2013-09-30 13:53:00
8:53 AM,57.9,30.9,36,29.94,10.0,SE,8.1,-,N/A,,Clear,140,2013-09-30 14:53:00
9:53 AM,63.0,30.0,29,29.95,10.0,ESE,5.8,-,N/A,,Clear,110,2013-09-30 15:53:00
10:53 AM,66.9,27.0,22,29.95,10.0,ENE,4.6,-,N/A,,Clear,70,2013-09-30 16:53:00
11:53 AM,70.0,27.0,20,29.91,10.0,SSE,5.8,-,N/A,,Clear,150,2013-09-30 17:53:00
1:53 PM,78.1,21.9,12,29.84,10.0,Variable,3.5,-,N/A,,Clear,0,2013-09-30 19:53:00
2:53 PM,80.1,23.0,12,29.80,10.0,NNW,10.4,-,N/A,,Clear,330,2013-09-30 20:53:00
3:53 PM,80.1,21.9,12,29.79,10.0,WNW,6.9,-,N/A,,Clear,300,2013-09-30 21:53:00
4:53 PM,82.0,19.9,10,29.77,10.0,West,8.1,-,N/A,,Clear,260,2013-09-30 22:53:00
5:53 PM,81.0,19.9,10,29.76,10.0,SW,6.9,-,N/A,,Clear,220,2013-09-30 23:53:00
6:53 PM,75.0,21.9,14,29.77,10.0,SSW,6.9,-,N/A,,Clear,200,2013-10-01 00:53:00
7:53 PM,66.0,21.9,19,29.80,10.0,WSW,6.9,-,N/A,,Clear,240,2013-10-01 01:53:00
8:53 PM,64.9,21.9,19,29.80,10.0,SE,3.5,-,N/A,,Clear,130,2013-10-01 02:53:00
9:53 PM,63.0,19.9,19,29.81,10.0,Calm,Calm,-,N/A,,Clear,0,2013-10-01 03:53:00
10:53 PM,62.1,19.9,20,29.82,10.0,NNE,3.5,-,N/A,,Clear,20,2013-10-01 04:53:00
11:53 PM,55.9,21.0,26,29.83,10.0,Calm,Calm,-,N/A,,Clear,0,2013-10-01 05:53:00